Year,Month,Day,Hour,Minute,Value (Times are PST for insolation in W/m^2)
2014,06,20,00,00,0.00
2014,06,20,00,01,0.00
2014,06,20,00,02,0.00
2014,06,20,00,03,0.00
2014,06,20,00,04,0.00
2014,06,20,00,05,0.00
2014,06,20,00,06,0.00
2014,06,20,00,07,0.00
2014,06,20,00,08,0.00
2014,06,20,00,09,0.00
2014,06,20,00,10,0.00
2014,06,20,00,11,0.00
2014,06,20,00,12,0.00
2014,06,20,00,13,0.00
2014,06,20,00,14,0.00
2014,06,20,00,15,0.00
2014,06,20,00,16,0.00
2014,06,20,00,17,0.00
2014,06,20,00,18,0.00
2014,06,20,00,19,0.00
2014,06,20,00,20,0.00
2014,06,20,00,21,0.00
2014,06,20,00,22,0.00
2014,06,20,00,23,0.00
2014,06,20,00,24,0.00
2014,06,20,00,25,0.00
2014,06,20,00,26,0.00
2014,06,20,00,27,0.00
2014,06,20,00,28,0.00
2014,06,20,00,29,0.00
2014,06,20,00,30,0.00
2014,06,20,00,31,0.00
2014,06,20,00,32,0.00
2014,06,20,00,33,0.00
2014,06,20,00,34,0.00
2014,06,20,00,35,0.00
2014,06,20,00,36,0.00
2014,06,20,00,37,0.00
2014,06,20,00,38,0.00
2014,06,20,00,39,0.00
2014,06,20,00,40,0.00
2014,06,20,00,41,0.00
2014,06,20,00,42,0.00
2014,06,20,00,43,0.00
2014,06,20,00,44,0.00
2014,06,20,00,45,0.00
2014,06,20,00,46,0.00
2014,06,20,00,47,0.00
2014,06,20,00,48,0.00
2014,06,20,00,49,0.00
2014,06,20,00,50,0.00
2014,06,20,00,51,0.00
2014,06,20,00,52,0.00
2014,06,20,00,53,0.00
2014,06,20,00,54,0.00
2014,06,20,00,55,0.00
2014,06,20,00,56,0.00
2014,06,20,00,57,0.00
2014,06,20,00,58,0.00
2014,06,20,00,59,0.00
2014,06,20,01,00,0.00
2014,06,20,01,01,0.00
2014,06,20,01,02,0.00
2014,06,20,01,03,0.00
2014,06,20,01,04,0.00
2014,06,20,01,05,0.00
2014,06,20,01,06,0.00
2014,06,20,01,07,0.00
2014,06,20,01,08,0.00
2014,06,20,01,09,0.00
2014,06,20,01,10,0.00
2014,06,20,01,11,0.00
2014,06,20,01,12,0.00
2014,06,20,01,13,0.00
2014,06,20,01,14,0.00
2014,06,20,01,15,0.00
2014,06,20,01,16,0.00
2014,06,20,01,17,0.00
2014,06,20,01,18,0.00
2014,06,20,01,19,0.00
2014,06,20,01,20,0.00
2014,06,20,01,21,0.00
2014,06,20,01,22,0.00
2014,06,20,01,23,0.00
2014,06,20,01,24,0.00
2014,06,20,01,25,0.00
2014,06,20,01,26,0.00
2014,06,20,01,27,0.00
2014,06,20,01,28,0.00
2014,06,20,01,29,0.00
2014,06,20,01,30,0.00
2014,06,20,01,31,0.00
2014,06,20,01,32,0.00
2014,06,20,01,33,0.00
2014,06,20,01,34,0.00
2014,06,20,01,35,0.00
2014,06,20,01,36,0.00
2014,06,20,01,37,0.00
2014,06,20,01,38,0.00
2014,06,20,01,39,0.00
2014,06,20,01,40,0.00
2014,06,20,01,41,0.00
2014,06,20,01,42,0.00
2014,06,20,01,43,0.00
2014,06,20,01,44,0.00
2014,06,20,01,45,0.00
2014,06,20,01,46,0.00
2014,06,20,01,47,0.00
2014,06,20,01,48,0.00
2014,06,20,01,49,0.00
2014,06,20,01,50,0.00
2014,06,20,01,51,0.00
2014,06,20,01,52,0.00
2014,06,20,01,53,0.00
2014,06,20,01,54,0.00
2014,06,20,01,55,0.00
2014,06,20,01,56,0.00
2014,06,20,01,57,0.00
2014,06,20,01,58,0.00
2014,06,20,01,59,0.00
2014,06,20,02,00,0.00
2014,06,20,02,01,0.00
2014,06,20,02,02,0.00
2014,06,20,02,03,0.00
2014,06,20,02,04,0.00
2014,06,20,02,05,0.00
2014,06,20,02,06,0.00
2014,06,20,02,07,0.00
2014,06,20,02,08,0.00
2014,06,20,02,09,0.00
2014,06,20,02,10,0.00
2014,06,20,02,11,0.00
2014,06,20,02,12,0.00
2014,06,20,02,13,0.00
2014,06,20,02,14,0.00
2014,06,20,02,15,0.00
2014,06,20,02,16,0.00
2014,06,20,02,17,0.00
2014,06,20,02,18,0.00
2014,06,20,02,19,0.00
2014,06,20,02,20,0.00
2014,06,20,02,21,0.00
2014,06,20,02,22,0.00
2014,06,20,02,23,0.00
2014,06,20,02,24,0.00
2014,06,20,02,25,0.00
2014,06,20,02,26,0.00
2014,06,20,02,27,0.00
2014,06,20,02,28,0.00
2014,06,20,02,29,0.00
2014,06,20,02,30,0.00
2014,06,20,02,31,0.00
2014,06,20,02,32,0.00
2014,06,20,02,33,0.00
2014,06,20,02,34,0.00
2014,06,20,02,35,0.00
2014,06,20,02,36,0.00
2014,06,20,02,37,0.00
2014,06,20,02,38,0.00
2014,06,20,02,39,0.00
2014,06,20,02,40,0.00
2014,06,20,02,41,0.00
2014,06,20,02,42,0.00
2014,06,20,02,43,0.00
2014,06,20,02,44,0.00
2014,06,20,02,45,0.00
2014,06,20,02,46,0.00
2014,06,20,02,47,0.00
2014,06,20,02,48,0.00
2014,06,20,02,49,0.00
2014,06,20,02,50,0.00
2014,06,20,02,51,0.00
2014,06,20,02,52,0.00
2014,06,20,02,53,0.00
2014,06,20,02,54,0.00
2014,06,20,02,55,0.00
2014,06,20,02,56,0.00
2014,06,20,02,57,0.00
2014,06,20,02,58,0.00
2014,06,20,02,59,0.00
2014,06,20,03,00,0.00
2014,06,20,03,01,0.00
2014,06,20,03,02,0.00
2014,06,20,03,03,0.00
2014,06,20,03,04,0.00
2014,06,20,03,05,0.00
2014,06,20,03,06,0.00
2014,06,20,03,07,0.00
2014,06,20,03,08,0.00
2014,06,20,03,09,0.00
2014,06,20,03,10,0.00
2014,06,20,03,11,0.00
2014,06,20,03,12,0.00
2014,06,20,03,13,0.00
2014,06,20,03,14,0.00
2014,06,20,03,15,0.00
2014,06,20,03,16,0.00
2014,06,20,03,17,0.00
2014,06,20,03,18,0.00
2014,06,20,03,19,0.00
2014,06,20,03,20,0.00
2014,06,20,03,21,0.00
2014,06,20,03,22,0.00
2014,06,20,03,23,0.00
2014,06,20,03,24,0.00
2014,06,20,03,25,0.00
2014,06,20,03,26,0.00
2014,06,20,03,27,0.00
2014,06,20,03,28,0.00
2014,06,20,03,29,0.00
2014,06,20,03,30,0.00
2014,06,20,03,31,0.00
2014,06,20,03,32,0.00
2014,06,20,03,33,0.00
2014,06,20,03,34,0.00
2014,06,20,03,35,0.00
2014,06,20,03,36,0.00
2014,06,20,03,37,0.00
2014,06,20,03,38,0.00
2014,06,20,03,39,0.00
2014,06,20,03,40,0.00
2014,06,20,03,41,0.00
2014,06,20,03,42,0.00
2014,06,20,03,43,0.00
2014,06,20,03,44,0.00
2014,06,20,03,45,0.00
2014,06,20,03,46,0.00
2014,06,20,03,47,0.00
2014,06,20,03,48,0.00
2014,06,20,03,49,0.00
2014,06,20,03,50,0.00
2014,06,20,03,51,0.00
2014,06,20,03,52,0.00
2014,06,20,03,53,0.00
2014,06,20,03,54,0.00
2014,06,20,03,55,0.00
2014,06,20,03,56,0.00
2014,06,20,03,57,0.00
2014,06,20,03,58,0.00
2014,06,20,03,59,0.00
2014,06,20,04,00,0.00
2014,06,20,04,01,0.00
2014,06,20,04,02,0.00
2014,06,20,04,03,0.00
2014,06,20,04,04,0.00
2014,06,20,04,05,0.00
2014,06,20,04,06,0.00
2014,06,20,04,07,0.00
2014,06,20,04,08,0.00
2014,06,20,04,09,0.00
2014,06,20,04,10,0.00
2014,06,20,04,11,0.00
2014,06,20,04,12,0.00
2014,06,20,04,13,0.00
2014,06,20,04,14,0.00
2014,06,20,04,15,0.00
2014,06,20,04,16,0.00
2014,06,20,04,17,0.00
2014,06,20,04,18,0.00
2014,06,20,04,19,0.00
2014,06,20,04,20,0.00
2014,06,20,04,21,0.00
2014,06,20,04,22,0.00
2014,06,20,04,23,0.00
2014,06,20,04,24,0.00
2014,06,20,04,25,0.00
2014,06,20,04,26,0.00
2014,06,20,04,27,0.00
2014,06,20,04,28,0.00
2014,06,20,04,29,0.00
2014,06,20,04,30,0.00
2014,06,20,04,31,0.00
2014,06,20,04,32,0.00
2014,06,20,04,33,0.00
2014,06,20,04,34,0.00
2014,06,20,04,35,0.00
2014,06,20,04,36,0.00
2014,06,20,04,37,0.00
2014,06,20,04,38,0.00
2014,06,20,04,39,0.00
2014,06,20,04,40,0.00
2014,06,20,04,41,0.00
2014,06,20,04,42,0.00
2014,06,20,04,43,0.00
2014,06,20,04,44,0.00
2014,06,20,04,45,0.00
2014,06,20,04,46,0.00
2014,06,20,04,47,0.00
2014,06,20,04,48,0.00
2014,06,20,04,49,0.00
2014,06,20,04,50,0.00
2014,06,20,04,51,0.00
2014,06,20,04,52,0.00
2014,06,20,04,53,0.00
2014,06,20,04,54,0.00
2014,06,20,04,55,0.00
2014,06,20,04,56,0.00
2014,06,20,04,57,0.00
2014,06,20,04,58,0.00
2014,06,20,04,59,0.00
2014,06,20,05,00,0.00
2014,06,20,05,01,0.00
2014,06,20,05,02,1.50
2014,06,20,05,03,5.00
2014,06,20,05,04,6.00
2014,06,20,05,05,7.00
2014,06,20,05,06,7.00
2014,06,20,05,07,7.00
2014,06,20,05,08,7.00
2014,06,20,05,09,7.00
2014,06,20,05,10,7.00
2014,06,20,05,11,7.00
2014,06,20,05,12,7.00
2014,06,20,05,13,7.00
2014,06,20,05,14,7.00
2014,06,20,05,15,7.00
2014,06,20,05,16,7.00
2014,06,20,05,17,7.80
2014,06,20,05,18,9.00
2014,06,20,05,19,9.00
2014,06,20,05,20,10.50
2014,06,20,05,21,11.00
2014,06,20,05,22,11.10
2014,06,20,05,23,12.50
2014,06,20,05,24,14.80
2014,06,20,05,25,17.00
2014,06,20,05,26,18.00
2014,06,20,05,27,18.80
2014,06,20,05,28,20.80
2014,06,20,05,29,21.30
2014,06,20,05,30,23.00
2014,06,20,05,31,23.80
2014,06,20,05,32,25.00
2014,06,20,05,33,25.60
2014,06,20,05,34,26.00
2014,06,20,05,35,27.80
2014,06,20,05,36,28.30
2014,06,20,05,37,30.00
2014,06,20,05,38,30.80
2014,06,20,05,39,32.50
2014,06,20,05,40,33.00
2014,06,20,05,41,34.50
2014,06,20,05,42,35.00
2014,06,20,05,43,37.20
2014,06,20,05,44,39.00
2014,06,20,05,45,39.40
2014,06,20,05,46,40.00
2014,06,20,05,47,41.30
2014,06,20,05,48,42.00
2014,06,20,05,49,43.80
2014,06,20,05,50,44.00
2014,06,20,05,51,44.50
2014,06,20,05,52,46.40
2014,06,20,05,53,47.00
2014,06,20,05,54,48.30
2014,06,20,05,55,50.50
2014,06,20,05,56,51.00
2014,06,20,05,57,51.20
2014,06,20,05,58,53.00
2014,06,20,05,59,53.00
2014,06,20,06,00,53.00
2014,06,20,06,01,53.00
2014,06,20,06,02,53.00
2014,06,20,06,03,53.80
2014,06,20,06,04,54.30
2014,06,20,06,05,56.00
2014,06,20,06,06,56.80
2014,06,20,06,07,59.10
2014,06,20,06,08,61.30
2014,06,20,06,09,62.00
2014,06,20,06,10,66.30
2014,06,20,06,11,69.40
2014,06,20,06,12,72.50
2014,06,20,06,13,74.80
2014,06,20,06,14,76.00
2014,06,20,06,15,76.00
2014,06,20,06,16,76.00
2014,06,20,06,17,75.90
2014,06,20,06,18,73.40
2014,06,20,06,19,69.70
2014,06,20,06,20,68.20
2014,06,20,06,21,67.00
2014,06,20,06,22,68.30
2014,06,20,06,23,69.80
2014,06,20,06,24,71.80
2014,06,20,06,25,72.30
2014,06,20,06,26,74.00
2014,06,20,06,27,74.80
2014,06,20,06,28,77.60
2014,06,20,06,29,80.30
2014,06,20,06,30,91.70
2014,06,20,06,31,97.20
2014,06,20,06,32,104.50
2014,06,20,06,33,108.60
2014,06,20,06,34,133.40
2014,06,20,06,35,140.20
2014,06,20,06,36,140.90
2014,06,20,06,37,147.80
2014,06,20,06,38,165.20
2014,06,20,06,39,164.70
2014,06,20,06,40,183.00
2014,06,20,06,41,181.60
2014,06,20,06,42,157.30
2014,06,20,06,43,142.70
2014,06,20,06,44,138.00
2014,06,20,06,45,142.80
2014,06,20,06,46,170.50
2014,06,20,06,47,192.70
2014,06,20,06,48,195.20
2014,06,20,06,49,202.00
2014,06,20,06,50,216.00
2014,06,20,06,51,235.20
2014,06,20,06,52,232.70
2014,06,20,06,53,223.90
2014,06,20,06,54,204.00
2014,06,20,06,55,167.40
2014,06,20,06,56,169.50
2014,06,20,06,57,186.40
2014,06,20,06,58,199.80
2014,06,20,06,59,190.10
2014,06,20,07,00,241.70
2014,06,20,07,01,269.00
2014,06,20,07,02,273.20
2014,06,20,07,03,272.00
2014,06,20,07,04,264.20
2014,06,20,07,05,263.20
2014,06,20,07,06,271.20
2014,06,20,07,07,279.50
2014,06,20,07,08,290.70
2014,06,20,07,09,294.20
2014,06,20,07,10,286.50
2014,06,20,07,11,283.00
2014,06,20,07,12,297.50
2014,06,20,07,13,316.40
2014,06,20,07,14,309.40
2014,06,20,07,15,296.60
2014,06,20,07,16,291.80
2014,06,20,07,17,278.00
2014,06,20,07,18,300.90
2014,06,20,07,19,296.80
2014,06,20,07,20,304.20
2014,06,20,07,21,316.00
2014,06,20,07,22,325.60
2014,06,20,07,23,328.10
2014,06,20,07,24,325.00
2014,06,20,07,25,338.80
2014,06,20,07,26,351.60
2014,06,20,07,27,369.20
2014,06,20,07,28,360.60
2014,06,20,07,29,350.40
2014,06,20,07,30,335.40
2014,06,20,07,31,314.80
2014,06,20,07,32,280.20
2014,06,20,07,33,257.10
2014,06,20,07,34,277.50
2014,06,20,07,35,303.20
2014,06,20,07,36,324.60
2014,06,20,07,37,333.80
2014,06,20,07,38,329.80
2014,06,20,07,39,318.50
2014,06,20,07,40,337.20
2014,06,20,07,41,322.40
2014,06,20,07,42,313.00
2014,06,20,07,43,317.90
2014,06,20,07,44,353.80
2014,06,20,07,45,356.00
2014,06,20,07,46,343.10
2014,06,20,07,47,297.20
2014,06,20,07,48,285.00
2014,06,20,07,49,311.10
2014,06,20,07,50,270.50
2014,06,20,07,51,258.60
2014,06,20,07,52,269.10
2014,06,20,07,53,290.50
2014,06,20,07,54,273.80
2014,06,20,07,55,249.50
2014,06,20,07,56,318.20
2014,06,20,07,57,362.40
2014,06,20,07,58,377.60
2014,06,20,07,59,347.20
2014,06,20,08,00,380.10
2014,06,20,08,01,384.80
2014,06,20,08,02,368.30
2014,06,20,08,03,423.30
2014,06,20,08,04,432.30
2014,06,20,08,05,424.20
2014,06,20,08,06,430.50
2014,06,20,08,07,463.80
2014,06,20,08,08,481.30
2014,06,20,08,09,475.80
2014,06,20,08,10,450.20
2014,06,20,08,11,425.00
2014,06,20,08,12,428.80
2014,06,20,08,13,467.00
2014,06,20,08,14,516.20
2014,06,20,08,15,526.20
2014,06,20,08,16,457.00
2014,06,20,08,17,409.10
2014,06,20,08,18,447.20
2014,06,20,08,19,453.30
2014,06,20,08,20,413.60
2014,06,20,08,21,380.10
2014,06,20,08,22,376.80
2014,06,20,08,23,370.70
2014,06,20,08,24,387.80
2014,06,20,08,25,422.20
2014,06,20,08,26,437.90
2014,06,20,08,27,438.80
2014,06,20,08,28,458.50
2014,06,20,08,29,491.20
2014,06,20,08,30,506.90
2014,06,20,08,31,501.70
2014,06,20,08,32,517.00
2014,06,20,08,33,504.20
2014,06,20,08,34,486.00
2014,06,20,08,35,455.20
2014,06,20,08,36,422.60
2014,06,20,08,37,419.70
2014,06,20,08,38,457.90
2014,06,20,08,39,462.70
2014,06,20,08,40,442.00
2014,06,20,08,41,421.80
2014,06,20,08,42,389.70
2014,06,20,08,43,339.70
2014,06,20,08,44,307.90
2014,06,20,08,45,339.00
2014,06,20,08,46,334.80
2014,06,20,08,47,320.20
2014,06,20,08,48,310.50
2014,06,20,08,49,323.60
2014,06,20,08,50,340.40
2014,06,20,08,51,380.10
2014,06,20,08,52,410.70
2014,06,20,08,53,431.00
2014,06,20,08,54,452.80
2014,06,20,08,55,463.00
2014,06,20,08,56,471.20
2014,06,20,08,57,485.10
2014,06,20,08,58,505.30
2014,06,20,08,59,513.00
2014,06,20,09,00,516.30
2014,06,20,09,01,528.60
2014,06,20,09,02,539.00
2014,06,20,09,03,539.70
2014,06,20,09,04,545.00
2014,06,20,09,05,554.60
2014,06,20,09,06,563.80
2014,06,20,09,07,568.90
2014,06,20,09,08,568.00
2014,06,20,09,09,570.70
2014,06,20,09,10,577.00
2014,06,20,09,11,571.50
2014,06,20,09,12,570.00
2014,06,20,09,13,566.60
2014,06,20,09,14,574.80
2014,06,20,09,15,590.20
2014,06,20,09,16,599.20
2014,06,20,09,17,599.60
2014,06,20,09,18,571.60
2014,06,20,09,19,555.00
2014,06,20,09,20,565.50
2014,06,20,09,21,534.30
2014,06,20,09,22,513.20
2014,06,20,09,23,514.10
2014,06,20,09,24,553.40
2014,06,20,09,25,569.20
2014,06,20,09,26,562.00
2014,06,20,09,27,565.90
2014,06,20,09,28,542.30
2014,06,20,09,29,516.60
2014,06,20,09,30,513.20
2014,06,20,09,31,498.40
2014,06,20,09,32,500.40
2014,06,20,09,33,526.80
2014,06,20,09,34,541.30
2014,06,20,09,35,564.70
2014,06,20,09,36,572.30
2014,06,20,09,37,557.00
2014,06,20,09,38,556.70
2014,06,20,09,39,591.50
2014,06,20,09,40,612.50
2014,06,20,09,41,624.00
2014,06,20,09,42,625.40
2014,06,20,09,43,631.80
2014,06,20,09,44,639.10
2014,06,20,09,45,642.70
2014,06,20,09,46,643.00
2014,06,20,09,47,644.70
2014,06,20,09,48,649.00
2014,06,20,09,49,649.30
2014,06,20,09,50,652.30
2014,06,20,09,51,656.50
2014,06,20,09,52,658.30
2014,06,20,09,53,662.80
2014,06,20,09,54,664.00
2014,06,20,09,55,666.20
2014,06,20,09,56,668.50
2014,06,20,09,57,670.40
2014,06,20,09,58,673.10
2014,06,20,09,59,675.00
2014,06,20,10,00,678.80
2014,06,20,10,01,680.00
2014,06,20,10,02,682.00
2014,06,20,10,03,682.50
2014,06,20,10,04,684.80
2014,06,20,10,05,686.00
2014,06,20,10,06,688.00
2014,06,20,10,07,690.60
2014,06,20,10,08,692.80
2014,06,20,10,09,692.00
2014,06,20,10,10,698.00
2014,06,20,10,11,698.80
2014,06,20,10,12,689.50
2014,06,20,10,13,682.10
2014,06,20,10,14,702.40
2014,06,20,10,15,707.90
2014,06,20,10,16,713.00
2014,06,20,10,17,718.50
2014,06,20,10,18,717.80
2014,06,20,10,19,721.60
2014,06,20,10,20,720.70
2014,06,20,10,21,724.60
2014,06,20,10,22,728.00
2014,06,20,10,23,731.00
2014,06,20,10,24,732.10
2014,06,20,10,25,737.80
2014,06,20,10,26,749.30
2014,06,20,10,27,719.60
2014,06,20,10,28,700.00
2014,06,20,10,29,700.00
2014,06,20,10,30,682.90
2014,06,20,10,31,713.00
2014,06,20,10,32,737.00
2014,06,20,10,33,682.50
2014,06,20,10,34,628.00
2014,06,20,10,35,694.30
2014,06,20,10,36,736.20
2014,06,20,10,37,749.20
2014,06,20,10,38,768.60
2014,06,20,10,39,765.20
2014,06,20,10,40,767.50
2014,06,20,10,41,778.20
2014,06,20,10,42,779.80
2014,06,20,10,43,777.30
2014,06,20,10,44,783.30
2014,06,20,10,45,773.20
2014,06,20,10,46,789.80
2014,06,20,10,47,786.30
2014,06,20,10,48,775.80
2014,06,20,10,49,790.20
2014,06,20,10,50,799.40
2014,06,20,10,51,793.40
2014,06,20,10,52,824.50
2014,06,20,10,53,807.30
2014,06,20,10,54,735.50
2014,06,20,10,55,694.00
2014,06,20,10,56,818.50
2014,06,20,10,57,841.30
2014,06,20,10,58,829.70
2014,06,20,10,59,827.50
2014,06,20,11,00,809.90
2014,06,20,11,01,790.50
2014,06,20,11,02,793.70
2014,06,20,11,03,770.20
2014,06,20,11,04,824.10
2014,06,20,11,05,799.10
2014,06,20,11,06,824.60
2014,06,20,11,07,826.00
2014,06,20,11,08,827.00
2014,06,20,11,09,828.00
2014,06,20,11,10,829.60
2014,06,20,11,11,830.80
2014,06,20,11,12,833.00
2014,06,20,11,13,833.60
2014,06,20,11,14,834.20
2014,06,20,11,15,834.10
2014,06,20,11,16,837.00
2014,06,20,11,17,838.00
2014,06,20,11,18,844.80
2014,06,20,11,19,844.90
2014,06,20,11,20,838.50
2014,06,20,11,21,841.50
2014,06,20,11,22,838.20
2014,06,20,11,23,840.20
2014,06,20,11,24,860.60
2014,06,20,11,25,867.00
2014,06,20,11,26,870.80
2014,06,20,11,27,845.40
2014,06,20,11,28,824.00
2014,06,20,11,29,824.00
2014,06,20,11,30,526.20
2014,06,20,11,31,343.00
2014,06,20,11,32,343.00
2014,06,20,11,33,350.00
2014,06,20,11,34,396.60
2014,06,20,11,35,413.00
2014,06,20,11,36,523.50
2014,06,20,11,37,596.70
2014,06,20,11,38,650.20
2014,06,20,11,39,673.00
2014,06,20,11,40,693.40
2014,06,20,11,41,826.50
2014,06,20,11,42,873.40
2014,06,20,11,43,946.00
2014,06,20,11,44,990.00
2014,06,20,11,45,990.00
2014,06,20,11,46,990.00
2014,06,20,11,47,990.00
2014,06,20,11,48,990.00
2014,06,20,11,49,869.20
2014,06,20,11,50,662.50
2014,06,20,11,51,654.00
2014,06,20,11,52,654.00
2014,06,20,11,53,532.30
2014,06,20,11,54,512.00
2014,06,20,11,55,522.00
2014,06,20,11,56,518.50
2014,06,20,11,57,459.00
2014,06,20,11,58,458.50
2014,06,20,11,59,459.50
2014,06,20,12,00,457.20
2014,06,20,12,01,449.70
2014,06,20,12,02,452.80
2014,06,20,12,03,464.80
2014,06,20,12,04,500.00
2014,06,20,12,05,541.40
2014,06,20,12,06,580.00
2014,06,20,12,07,591.00
2014,06,20,12,08,378.70
2014,06,20,12,09,356.40
2014,06,20,12,10,341.60
2014,06,20,12,11,326.90
2014,06,20,12,12,336.70
2014,06,20,12,13,343.00
2014,06,20,12,14,564.70
2014,06,20,12,15,598.00
2014,06,20,12,16,598.00
2014,06,20,12,17,525.60
2014,06,20,12,18,408.00
2014,06,20,12,19,408.00
2014,06,20,12,20,408.00
2014,06,20,12,21,408.00
2014,06,20,12,22,408.00
2014,06,20,12,23,408.00
2014,06,20,12,24,408.00
2014,06,20,12,25,382.90
2014,06,20,12,26,313.20
2014,06,20,12,27,275.20
2014,06,20,12,28,277.50
2014,06,20,12,29,316.00
2014,06,20,12,30,316.00
2014,06,20,12,31,606.10
2014,06,20,12,32,993.50
2014,06,20,12,33,976.10
2014,06,20,12,34,964.50
2014,06,20,12,35,948.80
2014,06,20,12,36,906.70
2014,06,20,12,37,916.90
2014,06,20,12,38,917.80
2014,06,20,12,39,932.50
2014,06,20,12,40,947.00
2014,06,20,12,41,940.80
2014,06,20,12,42,939.00
2014,06,20,12,43,938.10
2014,06,20,12,44,933.00
2014,06,20,12,45,933.80
2014,06,20,12,46,935.00
2014,06,20,12,47,933.00
2014,06,20,12,48,932.00
2014,06,20,12,49,932.80
2014,06,20,12,50,935.90
2014,06,20,12,51,955.20
2014,06,20,12,52,965.00
2014,06,20,12,53,976.00
2014,06,20,12,54,992.00
2014,06,20,12,55,1017.00
2014,06,20,12,56,1043.70
2014,06,20,12,57,1069.70
2014,06,20,12,58,1044.00
2014,06,20,12,59,874.10
2014,06,20,13,00,598.00
2014,06,20,13,01,598.00
2014,06,20,13,02,596.50
2014,06,20,13,03,596.00
2014,06,20,13,04,1170.30
2014,06,20,13,05,1151.40
2014,06,20,13,06,1120.00
2014,06,20,13,07,1015.50
2014,06,20,13,08,859.60
2014,06,20,13,09,828.00
2014,06,20,13,10,845.10
2014,06,20,13,11,1183.90
2014,06,20,13,12,1149.10
2014,06,20,13,13,1116.20
2014,06,20,13,14,1126.70
2014,06,20,13,15,1139.90
2014,06,20,13,16,1131.00
2014,06,20,13,17,1110.70
2014,06,20,13,18,1077.80
2014,06,20,13,19,1043.00
2014,06,20,13,20,1014.60
2014,06,20,13,21,996.00
2014,06,20,13,22,981.30
2014,06,20,13,23,972.80
2014,06,20,13,24,963.00
2014,06,20,13,25,957.30
2014,06,20,13,26,951.40
2014,06,20,13,27,947.00
2014,06,20,13,28,947.00
2014,06,20,13,29,945.10
2014,06,20,13,30,940.20
2014,06,20,13,31,939.00
2014,06,20,13,32,936.40
2014,06,20,13,33,932.70
2014,06,20,13,34,932.40
2014,06,20,13,35,934.00
2014,06,20,13,36,935.00
2014,06,20,13,37,933.40
2014,06,20,13,38,933.00
2014,06,20,13,39,932.00
2014,06,20,13,40,932.00
2014,06,20,13,41,932.40
2014,06,20,13,42,934.00
2014,06,20,13,43,933.80
2014,06,20,13,44,933.00
2014,06,20,13,45,933.00
2014,06,20,13,46,933.30
2014,06,20,13,47,935.00
2014,06,20,13,48,935.90
2014,06,20,13,49,937.00
2014,06,20,13,50,937.00
2014,06,20,13,51,935.40
2014,06,20,13,52,933.30
2014,06,20,13,53,932.50
2014,06,20,13,54,930.00
2014,06,20,13,55,929.20
2014,06,20,13,56,930.20
2014,06,20,13,57,930.70
2014,06,20,13,58,930.00
2014,06,20,13,59,928.20
2014,06,20,14,00,929.70
2014,06,20,14,01,927.50
2014,06,20,14,02,924.10
2014,06,20,14,03,919.90
2014,06,20,14,04,918.30
2014,06,20,14,05,918.80
2014,06,20,14,06,918.10
2014,06,20,14,07,916.20
2014,06,20,14,08,918.00
2014,06,20,14,09,918.40
2014,06,20,14,10,916.50
2014,06,20,14,11,916.50
2014,06,20,14,12,918.00
2014,06,20,14,13,918.90
2014,06,20,14,14,920.50
2014,06,20,14,15,917.50
2014,06,20,14,16,917.20
2014,06,20,14,17,919.00
2014,06,20,14,18,922.90
2014,06,20,14,19,925.00
2014,06,20,14,20,931.00
2014,06,20,14,21,933.30
2014,06,20,14,22,942.60
2014,06,20,14,23,947.80
2014,06,20,14,24,955.60
2014,06,20,14,25,962.50
2014,06,20,14,26,968.80
2014,06,20,14,27,977.00
2014,06,20,14,28,990.00
2014,06,20,14,29,990.00
2014,06,20,14,30,982.80
2014,06,20,14,31,965.70
2014,06,20,14,32,948.30
2014,06,20,14,33,936.50
2014,06,20,14,34,924.80
2014,06,20,14,35,918.30
2014,06,20,14,36,912.70
2014,06,20,14,37,909.00
2014,06,20,14,38,905.30
2014,06,20,14,39,899.50
2014,06,20,14,40,895.80
2014,06,20,14,41,893.20
2014,06,20,14,42,891.60
2014,06,20,14,43,894.50
2014,06,20,14,44,892.20
2014,06,20,14,45,891.00
2014,06,20,14,46,889.00
2014,06,20,14,47,886.40
2014,06,20,14,48,884.10
2014,06,20,14,49,882.00
2014,06,20,14,50,882.00
2014,06,20,14,51,882.00
2014,06,20,14,52,881.50
2014,06,20,14,53,879.70
2014,06,20,14,54,877.40
2014,06,20,14,55,875.20
2014,06,20,14,56,873.70
2014,06,20,14,57,872.00
2014,06,20,14,58,871.20
2014,06,20,14,59,868.30
2014,06,20,15,00,867.00
2014,06,20,15,01,867.80
2014,06,20,15,02,868.00
2014,06,20,15,03,875.00
2014,06,20,15,04,874.20
2014,06,20,15,05,872.00
2014,06,20,15,06,871.00
2014,06,20,15,07,868.00
2014,06,20,15,08,867.00
2014,06,20,15,09,861.60
2014,06,20,15,10,863.30
2014,06,20,15,11,865.50
2014,06,20,15,12,865.50
2014,06,20,15,13,863.00
2014,06,20,15,14,859.80
2014,06,20,15,15,858.00
2014,06,20,15,16,858.00
2014,06,20,15,17,853.80
2014,06,20,15,18,853.00
2014,06,20,15,19,853.40
2014,06,20,15,20,852.30
2014,06,20,15,21,849.70
2014,06,20,15,22,849.00
2014,06,20,15,23,846.50
2014,06,20,15,24,845.70
2014,06,20,15,25,842.80
2014,06,20,15,26,839.20
2014,06,20,15,27,837.50
2014,06,20,15,28,837.00
2014,06,20,15,29,835.40
2014,06,20,15,30,833.20
2014,06,20,15,31,830.90
2014,06,20,15,32,828.30
2014,06,20,15,33,824.00
2014,06,20,15,34,823.50
2014,06,20,15,35,823.00
2014,06,20,15,36,818.20
2014,06,20,15,37,816.10
2014,06,20,15,38,812.00
2014,06,20,15,39,812.00
2014,06,20,15,40,811.20
2014,06,20,15,41,809.50
2014,06,20,15,42,807.70
2014,06,20,15,43,807.00
2014,06,20,15,44,805.20
2014,06,20,15,45,804.50
2014,06,20,15,46,801.40
2014,06,20,15,47,800.00
2014,06,20,15,48,799.00
2014,06,20,15,49,796.00
2014,06,20,15,50,795.00
2014,06,20,15,51,795.00
2014,06,20,15,52,792.70
2014,06,20,15,53,790.20
2014,06,20,15,54,787.10
2014,06,20,15,55,786.00
2014,06,20,15,56,784.70
2014,06,20,15,57,780.80
2014,06,20,15,58,779.00
2014,06,20,15,59,776.70
2014,06,20,16,00,774.40
2014,06,20,16,01,772.60
2014,06,20,16,02,769.90
2014,06,20,16,03,766.70
2014,06,20,16,04,766.00
2014,06,20,16,05,765.10
2014,06,20,16,06,764.70
2014,06,20,16,07,761.90
2014,06,20,16,08,758.60
2014,06,20,16,09,758.00
2014,06,20,16,10,755.40
2014,06,20,16,11,752.40
2014,06,20,16,12,752.00
2014,06,20,16,13,748.70
2014,06,20,16,14,746.50
2014,06,20,16,15,744.60
2014,06,20,16,16,741.90
2014,06,20,16,17,738.70
2014,06,20,16,18,734.00
2014,06,20,16,19,731.30
2014,06,20,16,20,728.60
2014,06,20,16,21,725.40
2014,06,20,16,22,723.20
2014,06,20,16,23,721.50
2014,06,20,16,24,719.70
2014,06,20,16,25,716.00
2014,06,20,16,26,715.00
2014,06,20,16,27,713.40
2014,06,20,16,28,710.00
2014,06,20,16,29,708.80
2014,06,20,16,30,706.00
2014,06,20,16,31,705.00
2014,06,20,16,32,703.50
2014,06,20,16,33,701.00
2014,06,20,16,34,697.40
2014,06,20,16,35,694.00
2014,06,20,16,36,693.60
2014,06,20,16,37,692.00
2014,06,20,16,38,689.80
2014,06,20,16,39,686.60
2014,06,20,16,40,684.20
2014,06,20,16,41,683.70
2014,06,20,16,42,681.20
2014,06,20,16,43,678.20
2014,06,20,16,44,675.90
2014,06,20,16,45,673.70
2014,06,20,16,46,671.40
2014,06,20,16,47,668.20
2014,06,20,16,48,665.70
2014,06,20,16,49,663.70
2014,06,20,16,50,662.20
2014,06,20,16,51,660.00
2014,06,20,16,52,657.70
2014,06,20,16,53,656.20
2014,06,20,16,54,652.30
2014,06,20,16,55,649.20
2014,06,20,16,56,645.00
2014,06,20,16,57,644.20
2014,06,20,16,58,643.00
2014,06,20,16,59,642.30
2014,06,20,17,00,640.50
2014,06,20,17,01,636.30
2014,06,20,17,02,634.10
2014,06,20,17,03,629.00
2014,06,20,17,04,627.80